This demonstration page uses our WeatherBlox Daily Observations layout. Learn more.

Hourly Observations for January 26, 2015

Temp ( °F °C ) Dew Point ( °F °C ) Humidity (%) Winds ( mph kmh ) Pressure ( in mb ) Visibility ( mi km ) Precip ( " mm )
12:15 am 00:15 Cloudy 37 3 26 -3.1 65 65 SSW 8 13 30.09 1019 10 16.0934 0 0
12:35 am 00:35 Cloudy 38 3.1 27 -3 65 65 SSW 8 13 30.09 1019 10 16.0934 0 0
12:55 am 00:55 Partly Cloudy 36 2.3 26 -3.4 66 66 SSW 9 15 30.09 1019 10 16.0934 0 0
1:15 am 01:15 Clear 35 1.9 26 -3.5 68 68 SSW 6 9 30.09 1019 10 16.0934 0 0
1:35 am 01:35 Clear 34 1.2 25 -3.7 70 70 SSW 5 7 30.09 1019 10 16.0934 0 0
1:55 am 01:55 Clear 33 0.8 25 -4 71 71 SSW 7 11 30.09 1019 10 16.0934 0 0
2:15 am 02:15 Clear 33 0.8 25 -4 71 71 SW 5 7 30.09 1019 10 16.0934 0 0
2:35 am 02:35 Clear 35 1.4 25 -3.7 69 69 WSW 6 9 30.09 1019 10 16.0934 0 0
2:55 am 02:55 Clear 35 1.8 26 -3.5 68 68 W 8 13 30.06 1018 10 16.0934 0 0
3:15 am 03:15 Clear 36 2.2 27 -3 69 69 W 9 15 30.09 1019 10 16.0934 0 0
3:35 am 03:35 Clear 36 2 27 -3 70 70 W 9 15 30.06 1018 10 16.0934 0 0
3:55 am 03:55 Clear 35 1.5 26 -3.2 71 71 W 10 17 30.06 1018 10 16.0934 0 0
4:15 am 04:15 Clear 34 1.1 26 -3.2 73 73 W 9 15 30.06 1018 10 16.0934 0 0
4:35 am 04:35 Clear 34 1.1 26 -3.2 73 73 W 9 15 30.06 1018 10 16.0934 0 0
4:55 am 04:55 Clear 34 1.1 27 -2.9 75 75 W 10 17 30.06 1018 10 16.0934 0 0
5:15 am 05:15 Clear 34 1.3 27 -2.8 74 74 WNW 9 15 30.06 1018 10 16.0934 0 0
5:35 am 05:35 Clear 33 0.8 27 -2.8 77 77 WNW 8 13 30.06 1018 10 16.0934 0 0
5:55 am 05:55 Clear 35 1.6 28 -2.2 76 76 WNW 8 13 30.06 1018 10 16.0934 0 0
6:15 am 06:15 Clear 37 2.5 29 -1.6 75 75 WNW 10 17 30.03 1017 10 16.0934 0 0
6:35 am 06:35 Clear 37 3 30 -1.2 74 74 WNW 9 15 30.03 1017 10 16.0934 0 0
6:55 am 06:55 Clear 40 4.6 31 -0.5 70 70 WNW 10 17 30.03 1017 10 16.0934 0 0
7:15 am 07:15 Clear 41 4.8 31 -0.6 68 68 WNW 10 17 30.06 1018 10 16.0934 0 0
7:35 am 07:35 Clear 41 5.1 31 -0.7 66 66 WNW 9 15 30.06 1018 10 16.0934 0 0
7:55 am 07:55 Sunny 42 5.3 31 -0.7 66 66 WNW 12 19 30.06 1018 10 16.0934 0 0
8:15 am 08:15 Sunny 40 4.7 31 -0.8 68 68 WNW 8 13 30.06 1018 10 16.0934 0 0
8:35 am 08:35 Sunny 41 5.1 31 -0.7 66 66 WNW 12 19 30.06 1018 10 16.0934 0 0
8:55 am 08:55 Sunny 44 6.6 32 -0.1 63 63 WNW 13 20 30.03 1017 10 16.0934 0 0
9:15 am 09:15 Sunny 47 8.4 32 0 56 56 WNW 14 22 30.06 1018 10 16.0934 0 0
9:35 am 09:35 Sunny 50 10.1 32 0 50 50 WNW 13 20 30 1016 10 16.0934 0 0
9:55 am 09:55 Sunny 51 10.8 32 0 48 48 WNW 17 28 30.03 1017 10 16.0934 0 0
10:15 am 10:15 Sunny 53 11.6 32 0 45 45 WNW 17 28 30.03 1017 10 16.0934 0 0
10:35 am 10:35 Sunny 56 13.3 31 -0.3 39 39 WNW 21 33 30 1016 10 16.0934 0 0
10:55 am 10:55 Sunny 58 14.5 31 -0.5 36 36 NW 20 31 30 1016 10 16.0934 0 0
11:15 am 11:15 Sunny 59 14.8 31 -0.5 35 35 NW 17 28 30.03 1017 10 16.0934 0 0
11:35 am 11:35 Sunny 59 15.1 31 -0.5 35 35 NW 23 37 30.03 1017 10 16.0934 0 0
11:55 am 11:55 Sunny 60 15.7 31 -0.4 34 34 NNW 15 24 30.03 1017 10 16.0934 0 0
12:15 pm 12:15 Sunny 60 15.8 31 -0.3 34 34 NW 22 35 30.03 1017 10 16.0934 0 0
12:35 pm 12:35 Sunny 61 16.2 32 -0.2 33 33 NW 16 26 30 1016 10 16.0934 0 0
12:55 pm 12:55 Sunny 62 16.7 32 -0.1 32 32 NW 18 30 29.97 1015 10 16.0934 0 0
1:15 pm 13:15 Sunny 64 17.5 32 0 31 31 NNW 16 26 29.97 1015 10 16.0934 0 0
1:35 pm 13:35 Sunny 64 18 32 0 30 30 NW 13 20 29.97 1015 10 16.0934 0 0
1:55 pm 13:55 Sunny 66 18.9 32 -0.2 28 28 NW 17 28 29.94 1014 10 16.0934 0 0
2:15 pm 14:15 Sunny 67 19.3 31 -0.8 26 26 NNW 23 37 29.94 1014 10 16.0934 0 0
2:35 pm 14:35 Sunny 68 20 30 -1 24 24 NW 23 37 29.91 1013 10 16.0934 0 0
2:55 pm 14:55 Sunny 67 19.6 29 -1.5 24 24 NNW 18 30 29.91 1013 10 16.0934 0 0
3:15 pm 15:15 Sunny 68 19.8 30 -1.2 24 24 NNW 14 22 29.91 1013 10 16.0934 0 0
3:35 pm 15:35 Sunny 67 19.6 29 -1.5 24 24 NNW 20 31 29.94 1014 10 16.0934 0 0
3:55 pm 15:55 Sunny 67 19.5 29 -1.4 24 24 NNW 17 28 29.94 1014 10 16.0934 0 0
4:15 pm 16:15 Sunny 66 19.1 30 -1.3 25 25 NNW 16 26 29.97 1015 10 16.0934 0 0
4:35 pm 16:35 Sunny 66 18.7 30 -1.1 26 26 NNW 13 20 29.97 1015 10 16.0934 0 0
4:55 pm 16:55 Sunny 65 18.1 30 -1 28 28 NNW 10 17 29.97 1015 10 16.0934 0 0
5:15 pm 17:15 Sunny 63 17.1 30 -1.1 29 29 NNW 9 15 29.97 1015 10 16.0934 0 0
5:35 pm 17:35 Sunny 60 15.6 29 -1.5 31 31 NNW 8 13 30 1016 10 16.0934 0 0
5:55 pm 17:55 Clear 58 14.3 29 -1.7 33 33 NNW 6 9 30 1016 10 16.0934 0 0
6:15 pm 18:15 Clear 52 11.3 29 -1.8 40 40 N 6 9 30.03 1017 10 16.0934 0 0
6:35 pm 18:35 Clear 52 10.9 29 -1.8 41 41 NNW 6 9 30.06 1018 10 16.0934 0 0
6:55 pm 18:55 Clear 48 8.8 28 -2.4 46 46 Calm 30.09 1019 10 16.0934 0 0
7:15 pm 19:15 Clear 45 7 28 -2.5 51 51 Calm 30.09 1019 10 16.0934 0 0
7:35 pm 19:35 Clear 42 5.4 27 -2.9 55 55 W 3 6 30.12 1020 10 16.0934 0 0
7:55 pm 19:55 Clear 42 5.5 28 -2.5 57 57 W 3 6 30.12 1020 10 16.0934 0 0
8:15 pm 20:15 Clear 40 4.6 27 -2.7 59 59 WNW 3 6 30.12 1020 10 16.0934 0 0
8:35 pm 20:35 Clear 40 4.5 27 -2.6 60 60 W 6 9 30.12 1020 10 16.0934 0 0
8:55 pm 20:55 Clear 40 4.6 27 -2.6 60 60 W 6 9 30.12 1020 10 16.0934 0 0
9:15 pm 21:15 Clear 41 4.9 28 -2.3 60 60 W 3 6 30.12 1020 10 16.0934 0 0
9:35 pm 21:35 Clear 41 4.8 27 -2.6 59 59 Calm 30.12 1020 10 16.0934 0 0
9:55 pm 21:55 Clear 37 2.6 26 -3.5 64 64 Calm 30.15 1021 10 16.0934 0 0
10:15 pm 22:15 Clear 36 2.3 26 -3.4 66 66 Calm 30.15 1021 10 16.0934 0 0
10:35 pm 22:35 Clear 35 1.8 26 -3.2 70 70 SSW 5 7 30.15 1021 10 16.0934 0 0
10:55 pm 22:55 Clear 37 2.9 27 -2.7 67 67 SW 5 7 30.15 1021 10 16.0934 0 0
11:15 pm 23:15 Clear 38 3.1 27 -2.8 66 66 Calm 30.15 1021 10 16.0934 0 0
11:35 pm 23:35 Clear 36 2.2 26 -3.3 67 67 Calm 30.18 1022 10 16.0934 0 0
11:55 pm 23:55 Clear 35 1.8 26 -3.5 68 68 Calm 30.18 1022 10 16.0934 0 0

Powered by AerisWeather